TimeCST,TemperatureF,Dew PointF,Humidity,Sea Level PressureIn,VisibilityMPH,Wind Direction,Wind SpeedMPH,Gust SpeedMPH,PrecipitationIn,Events,Conditions,WindDirDegrees,DateUTC
12:53 AM,32.0,18.0,56,30.16,10.0,WNW,8.1,-,N/A,,Clear,300,2013-01-17 06:53:00
1:53 AM,32.0,19.0,59,30.17,10.0,NW,6.9,-,N/A,,Clear,320,2013-01-17 07:53:00
2:53 AM,33.1,19.0,56,30.16,10.0,NW,4.6,-,N/A,,Clear,320,2013-01-17 08:53:00
3:53 AM,35.1,19.9,54,30.16,10.0,NNW,4.6,-,N/A,,Clear,330,2013-01-17 09:53:00
4:53 AM,35.1,21.0,57,30.17,10.0,NNW,6.9,-,N/A,,Partly Cloudy,330,2013-01-17 10:53:00
5:53 AM,35.1,21.9,59,30.18,10.0,NNW,5.8,-,N/A,,Mostly Cloudy,330,2013-01-17 11:53:00
6:53 AM,34.0,21.9,61,30.22,10.0,NW,4.6,-,N/A,,Clear,320,2013-01-17 12:53:00
7:53 AM,33.1,21.9,64,30.25,10.0,NW,4.6,-,N/A,,Mostly Cloudy,310,2013-01-17 13:53:00
8:53 AM,36.0,24.1,62,30.27,10.0,NNW,5.8,-,N/A,,Overcast,340,2013-01-17 14:53:00
9:53 AM,39.9,26.1,58,30.29,10.0,North,8.1,-,N/A,,Overcast,350,2013-01-17 15:53:00
10:53 AM,41.0,26.1,55,30.29,10.0,North,12.7,-,N/A,,Overcast,350,2013-01-17 16:53:00
11:53 AM,43.0,28.9,58,30.27,10.0,NNW,11.5,19.6,N/A,,Overcast,340,2013-01-17 17:53:00
12:53 PM,46.0,32.0,58,30.27,10.0,NNW,10.4,19.6,N/A,,Clear,340,2013-01-17 18:53:00
1:53 PM,48.9,33.1,54,30.29,10.0,North,12.7,-,N/A,,Clear,350,2013-01-17 19:53:00
2:53 PM,50.0,34.0,54,30.30,10.0,North,8.1,-,N/A,,Clear,350,2013-01-17 20:53:00
3:53 PM,48.0,33.1,56,30.34,10.0,NNW,9.2,20.7,N/A,,Clear,340,2013-01-17 21:53:00
4:53 PM,45.0,30.9,58,30.38,10.0,North,9.2,17.3,N/A,,Clear,360,2013-01-17 22:53:00
5:53 PM,41.0,27.0,57,30.42,10.0,North,8.1,-,N/A,,Clear,350,2013-01-17 23:53:00
6:53 PM,39.0,27.0,62,30.45,10.0,NW,3.5,-,N/A,,Clear,310,2013-01-18 00:53:00
7:53 PM,36.0,27.0,70,30.47,10.0,NNW,4.6,-,N/A,,Clear,330,2013-01-18 01:53:00
8:53 PM,33.1,27.0,78,30.48,10.0,NW,3.5,-,N/A,,Clear,320,2013-01-18 02:53:00
9:53 PM,35.1,26.1,70,30.50,10.0,NW,4.6,-,N/A,,Clear,310,2013-01-18 03:53:00
10:53 PM,30.9,26.1,82,30.51,10.0,NE,3.5,-,N/A,,Clear,40,2013-01-18 04:53:00
11:53 PM,30.0,25.0,82,30.51,10.0,Calm,Calm,-,N/A,,Clear,0,2013-01-18 05:53:00